• In Deutschland
  • Länderverzeichnis
  • Für 7 Tage
  • Wassertemperatur
  • Satellitenkarten
  • Wetterkarte
  • Widgets
  • user-avatar
    Anmelden

    Stündliche Wetter Hobart

    Heute, 19 Januar, Freitag

    Zeit Temperatur Niederschläge Wind Luftdruck Luftfeuchtigkeit
    00:00 +21°C° 0 mm 3 m/S 742 mmHg 48%
    01:00 +21°C° 0 mm 3 m/S 741 mmHg 48%
    02:00 +21°C° 0 mm 3 m/S 741 mmHg 44%
    03:00 +22°C° 0 mm 3 m/S 741 mmHg 40%
    04:00 +22°C° 0 mm 3 m/S 740 mmHg 36%
    05:00 +24°C° 0 mm 3 m/S 741 mmHg 36%
    06:00 +25°C° 0 mm 3 m/S 741 mmHg 37%
    07:00 +26°C° 0 mm 4 m/S 742 mmHg 37%
    08:00 +27°C° 0 mm 4 m/S 743 mmHg 38%
    09:00 +29°C° 0 mm 5 m/S 743 mmHg 40%
    10:00 +32°C° 0 mm 4 m/S 744 mmHg 38%
    11:00 +32°C° 0 mm 5 m/S 744 mmHg 40%
    12:00 +32°C° 0 mm 5 m/S 744 mmHg 42%
    13:00 +30°C° 0 mm 5 m/S 744 mmHg 44%
    14:00 +29°C° 0,1 mm 5 m/S 745 mmHg 45%
    15:00 +28°C° 0,1 mm 5 m/S 745 mmHg 47%
    16:00 +26°C° 0 mm 4 m/S 746 mmHg 52%
    17:00 +23°C° 0 mm 4 m/S 746 mmHg 58%
    18:00 +20°C° 0 mm 3 m/S 746 mmHg 64%
    19:00 +18°C° 0 mm 3 m/S 747 mmHg 71%
    20:00 +17°C° 0 mm 2 m/S 747 mmHg 75%
    21:00 +15°C° 0 mm 2 m/S 747 mmHg 80%
    22:00 +14°C° 0 mm 1 m/S 748 mmHg 85%
    23:00 +14°C° 0 mm 1 m/S 748 mmHg 86%

    Morgen, 20 Januar, Samstag

    Zeit Temperatur Niederschläge Wind Luftdruck Luftfeuchtigkeit
    00:00 +13°C° 0 mm 1 m/S 748 mmHg 87%
    01:00 +13°C° 0 mm 1 m/S 748 mmHg 88%
    02:00 +13°C° 0 mm 1 m/S 748 mmHg 90%
    03:00 +11°C° 0 mm 0 m/S 748 mmHg 92%
    04:00 +11°C° 0 mm 0 m/S 748 mmHg 94%
    05:00 +12°C° 0 mm 0 m/S 749 mmHg 88%
    06:00 +14°C° 0 mm 0 m/S 749 mmHg 82%
    07:00 +15°C° 0 mm 0 m/S 749 mmHg 76%
    08:00 +20°C° 0 mm 1 m/S 749 mmHg 65%
    09:00 +23°C° 0 mm 1 m/S 749 mmHg 54%
    10:00 +25°C° 0 mm 2 m/S 749 mmHg 44%
    11:00 +27°C° 0 mm 2 m/S 749 mmHg 40%
    12:00 +28°C° 0 mm 3 m/S 749 mmHg 37%
    13:00 +29°C° 0 mm 3 m/S 749 mmHg 34%
    14:00 +27°C° 0 mm 3 m/S 748 mmHg 39%
    15:00 +26°C° 0 mm 4 m/S 748 mmHg 45%
    16:00 +25°C° 0 mm 4 m/S 748 mmHg 50%
    17:00 +22°C° 0 mm 4 m/S 748 mmHg 58%
    18:00 +20°C° 0 mm 3 m/S 748 mmHg 65%
    19:00 +18°C° 0 mm 3 m/S 748 mmHg 73%
    20:00 +17°C° 0 mm 3 m/S 748 mmHg 78%
    21:00 +16°C° 0 mm 2 m/S 748 mmHg 83%
    22:00 +15°C° 0 mm 2 m/S 749 mmHg 89%
    23:00 +15°C° 0 mm 2 m/S 748 mmHg 90%

    übermorgen, 21 Januar, Sonntag

    Zeit Temperatur Niederschläge Wind Luftdruck Luftfeuchtigkeit
    00:00 +15°C° 0 mm 2 m/S 748 mmHg 92%
    01:00 +14°C° 0 mm 2 m/S 748 mmHg 94%
    02:00 +14°C° 0 mm 2 m/S 747 mmHg 95%
    03:00 +14°C° 0 mm 2 m/S 747 mmHg 97%
    04:00 +13°C° 0 mm 1 m/S 746 mmHg 98%
    05:00 +15°C° 0 mm 1 m/S 746 mmHg 92%
    06:00 +16°C° 0 mm 1 m/S 746 mmHg 86%
    07:00 +19°C° 0 mm 1 m/S 746 mmHg 80%
    08:00 +22°C° 0 mm 1 m/S 746 mmHg 69%
    09:00 +25°C° 0 mm 1 m/S 746 mmHg 57%
    10:00 +28°C° 0 mm 1 m/S 746 mmHg 46%
    11:00 +28°C° 0 mm 2 m/S 745 mmHg 46%
    12:00 +28°C° 0 mm 2 m/S 745 mmHg 45%
    13:00 +28°C° 0 mm 3 m/S 744 mmHg 45%
    14:00 +28°C° 0 mm 3 m/S 744 mmHg 46%
    15:00 +28°C° 0 mm 3 m/S 743 mmHg 46%
    16:00 +28°C° 0 mm 3 m/S 743 mmHg 47%
    17:00 +26°C° 0 mm 3 m/S 743 mmHg 55%
    18:00 +24°C° 0 mm 3 m/S 743 mmHg 64%
    19:00 +22°C° 0 mm 3 m/S 743 mmHg 72%
    20:00 +20°C° 0 mm 2 m/S 743 mmHg 80%
    21:00 +18°C° 0 mm 2 m/S 743 mmHg 89%
    22:00 +16°C° 0 mm 2 m/S 743 mmHg 98%
    23:00 +16°C° 0 mm 2 m/S 742 mmHg 97%

    22 Januar, Montag

    Zeit Temperatur Niederschläge Wind Luftdruck Luftfeuchtigkeit
    00:00 +16°C° 0 mm 1 m/S 742 mmHg 97%
    01:00 +16°C° 0 mm 1 m/S 741 mmHg 97%
    02:00 +16°C° 0 mm 1 m/S 741 mmHg 97%
    03:00 +16°C° 0 mm 1 m/S 740 mmHg 98%
    04:00 +15°C° 0 mm 1 m/S 740 mmHg 98%
    05:00 +16°C° 0 mm 1 m/S 740 mmHg 93%
    06:00 +19°C° 0 mm 1 m/S 741 mmHg 87%
    07:00 +19°C° 0 mm 2 m/S 741 mmHg 82%
    08:00 +21°C° 0 mm 2 m/S 741 mmHg 66%
    09:00 +25°C° 0 mm 2 m/S 741 mmHg 50%
    10:00 +28°C° 0 mm 3 m/S 741 mmHg 35%
    11:00 +29°C° 0 mm 3 m/S 741 mmHg 31%
    12:00 +30°C° 0 mm 4 m/S 741 mmHg 28%
    13:00 +32°C° 0 mm 5 m/S 740 mmHg 24%
    14:00 +30°C° 0 mm 5 m/S 740 mmHg 28%
    15:00 +29°C° 0 mm 5 m/S 740 mmHg 31%
    16:00 +28°C° 0 mm 5 m/S 740 mmHg 34%
    17:00 +26°C° 0 mm 4 m/S 741 mmHg 43%
    18:00 +23°C° 0 mm 4 m/S 741 mmHg 53%
    19:00 +20°C° 0 mm 3 m/S 742 mmHg 63%
    20:00 +18°C° 0 mm 3 m/S 742 mmHg 72%
    21:00 +17°C° 0 mm 3 m/S 742 mmHg 81%
    22:00 +15°C° 0 mm 2 m/S 743 mmHg 90%
    23:00 +14°C° 0 mm 2 m/S 742 mmHg 92%

    23 Januar, Dienstag

    Zeit Temperatur Niederschläge Wind Luftdruck Luftfeuchtigkeit
    00:00 +13°C° 0 mm 2 m/S 742 mmHg 93%
    01:00 +13°C° 0 mm 2 m/S 742 mmHg 95%
    02:00 +12°C° 0 mm 2 m/S 742 mmHg 96%
    03:00 +12°C° 0 mm 2 m/S 742 mmHg 96%
    04:00 +10°C° 0 mm 2 m/S 742 mmHg 97%
    05:00 +13°C° 0 mm 2 m/S 742 mmHg 90%
    06:00 +14°C° 0 mm 2 m/S 743 mmHg 82%
    07:00 +15°C° 0 mm 2 m/S 743 mmHg 75%
    08:00 +17°C° 0 mm 2 m/S 743 mmHg 67%
    09:00 +18°C° 0 mm 2 m/S 743 mmHg 60%
    10:00 +20°C° 0 mm 2 m/S 744 mmHg 52%
    11:00 +21°C° 0 mm 3 m/S 744 mmHg 47%
    12:00 +24°C° 0 mm 3 m/S 744 mmHg 42%
    13:00 +25°C° 0 mm 3 m/S 744 mmHg 38%
    14:00 +25°C° 0 mm 4 m/S 744 mmHg 38%
    15:00 +25°C° 0 mm 4 m/S 744 mmHg 38%
    16:00 +25°C° 0 mm 5 m/S 744 mmHg 38%
    17:00 +22°C° 0 mm 4 m/S 744 mmHg 49%
    18:00 +20°C° 0 mm 4 m/S 744 mmHg 59%
    19:00 +18°C° 0 mm 3 m/S 745 mmHg 70%
    20:00 +17°C° 0 mm 3 m/S 745 mmHg 75%
    21:00 +16°C° 0 mm 2 m/S 745 mmHg 80%
    22:00 +15°C° 0 mm 2 m/S 745 mmHg 85%
    23:00 +15°C° 0 mm 2 m/S 745 mmHg 86%

    24 Januar, Mittwoch

    Zeit Temperatur Niederschläge Wind Luftdruck Luftfeuchtigkeit
    00:00 +15°C° 0 mm 2 m/S 745 mmHg 87%
    01:00 +15°C° 0 mm 2 m/S 744 mmHg 88%
    02:00 +14°C° 0 mm 2 m/S 744 mmHg 89%
    03:00 +14°C° 0 mm 2 m/S 744 mmHg 91%
    04:00 +14°C° 0 mm 1 m/S 744 mmHg 93%
    05:00 +15°C° 0 mm 1 m/S 744 mmHg 89%
    06:00 +16°C° 0 mm 1 m/S 744 mmHg 86%
    07:00 +18°C° 0 mm 1 m/S 744 mmHg 83%
    08:00 +20°C° 0 mm 1 m/S 744 mmHg 70%
    09:00 +21°C° 0 mm 2 m/S 744 mmHg 57%
    10:00 +24°C° 0 mm 2 m/S 744 mmHg 44%
    11:00 +26°C° 0 mm 3 m/S 743 mmHg 38%
    12:00 +28°C° 0 mm 3 m/S 743 mmHg 32%
    13:00 +29°C° 0 mm 4 m/S 743 mmHg 26%
    14:00 +29°C° 0 mm 4 m/S 743 mmHg 29%
    15:00 +28°C° 0 mm 4 m/S 743 mmHg 32%
    16:00 +28°C° 0 mm 4 m/S 743 mmHg 34%
    17:00 +25°C° 0 mm 4 m/S 744 mmHg 45%
    18:00 +22°C° 0 mm 4 m/S 744 mmHg 56%
    19:00 +19°C° 0 mm 3 m/S 745 mmHg 67%
    20:00 +18°C° 0 mm 3 m/S 745 mmHg 74%
    21:00 +16°C° 0 mm 2 m/S 745 mmHg 81%
    22:00 +15°C° 0 mm 2 m/S 746 mmHg 88%
    23:00 +14°C° 0 mm 2 m/S 746 mmHg 89%
    Mehr zeigen